Garrison, ND

4:40 AM CDT on October 18, 2017 (GMT -0500)
Garrison

Weather History for KN60 - May, 2013

Change the Weather History Date:

Friday, May 3, 2013

  Actual Average Record
Temperature  
Mean Temperature 41 °F -  
Max Temperature 57 °F - 78 °F (2007)
Min Temperature 24 °F - 16 °F (2005)
Degree Days  
Heating Degree Days 25    
Cooling Degree Days 0    
Month to date cooling degree days 0  
Year to date cooling degree days 0  
Moisture  
Dew Point 22 °F    
Average Humidity 54    
Maximum Humidity 88    
Minimum Humidity 20    
Precipitation  
Precipitation 0.00 in - 0.04 in (1999)
Month to date precipitation 0.00  
Year to date precipitation 3.86  
Sea Level Pressure  
Sea Level Pressure 30.38 in    
Wind  
Wind Speed 8 mph (SE)    
Max Wind Speed 15 mph    
Max Gust Speed 20 mph    
T = Trace of Precipitation, MM = Missing Value Source: NWS Daily Summary

Daily Weather History Graph

Daily Weather History Graph

Search for Another Location

Airport or City:

Trip Planner

Search our weather history database for the weather conditions in past years. The results will help you decide how hot, cold, wet, or windy it might be!

Date:

Astronomy

May. 03, 2013 Rise Set
Actual Time 6:24 AM CDT 9:01 PM CDT
Civil Twilight 5:50 AM CDT 9:36 PM CDT
Nautical Twilight 5:06 AM CDT 10:20 PM CDT
Astronomical Twilight 4:15 AM CDT 11:11 PM CDT
Moon 3:17 AM CDT (5/3) 2:32 PM CDT (5/3)
Length of Visible Light 15h 46m
Length of Day
14h 36m
Last Quarter, 37% of the Moon is Illuminated
May 3
Last Quarter
May 9
New
May 17
First Quarter
May 24
Full
May 31
Last Quarter

Hourly Weather History & Observations

Time (CDT) Temp. Windchill Dew Point Humidity Pressure Visibility Wind Dir Wind Speed Gust Speed Precip Events Conditions
12:52 AM 30.9 °F 26.2 °F 23.0 °F 72% 30.51 in - SSE 4.6 mph - N/A   Unknown
1:52 AM 30.0 °F 24.1 °F 23.0 °F 75% 30.49 in - SE 5.8 mph - N/A   Unknown
2:52 AM 28.0 °F 22.8 °F 21.0 °F 75% 30.48 in - SE 4.6 mph - N/A   Unknown
3:52 AM 28.9 °F 21.1 °F 21.9 °F 75% 30.47 in - ESE 8.1 mph - N/A   Unknown
4:52 AM 28.0 °F 20.8 °F 21.0 °F 75% 30.46 in - SE 6.9 mph - N/A   Unknown
5:52 AM 25.0 °F 18.1 °F 21.0 °F 85% 30.45 in - SE 5.8 mph - N/A   Unknown
6:52 AM 26.1 °F 19.4 °F 21.9 °F 84% 30.45 in - ESE 5.8 mph - N/A   Unknown
7:52 AM 30.0 °F 25.2 °F 23.0 °F 75% 30.44 in - ESE 4.6 mph - N/A   Unknown
8:52 AM 35.1 °F 30.1 °F 25.0 °F 67% 30.43 in - SE 5.8 mph - N/A   Unknown
9:52 AM 39.9 °F 34.5 °F 25.0 °F 55% 30.40 in - SSE 8.1 mph - N/A   Unknown
10:52 AM 45.0 °F 39.7 °F 24.1 °F 44% 30.39 in - SSE 10.4 mph - N/A   Unknown
11:52 AM 48.9 °F - 24.1 °F 38% 30.38 in - SSE 11.5 mph - N/A   Unknown
12:52 PM 51.1 °F - 25.0 °F 36% 30.36 in - SSE 8.1 mph - N/A   Unknown
1:52 PM 54.0 °F - 21.9 °F 29% 30.33 in - South 8.1 mph - N/A   Unknown
2:52 PM 54.0 °F - 21.0 °F 28% 30.32 in - SSE 6.9 mph - N/A   Unknown
3:52 PM 55.9 °F - 19.9 °F 25% 30.30 in - SSE 8.1 mph - N/A   Unknown
4:52 PM 55.0 °F - 16.0 °F 22% 30.28 in - East 8.1 mph - N/A   Unknown
5:52 PM 55.0 °F - 19.0 °F 24% 30.28 in - ESE 11.5 mph 18.4 mph N/A   Unknown
6:52 PM 54.0 °F - 19.0 °F 25% 30.29 in - East 13.8 mph - N/A   Unknown
7:52 PM 52.0 °F - 17.1 °F 25% 30.30 in - East 9.2 mph - N/A   Unknown
8:52 PM 46.9 °F - 18.0 °F 32% 30.30 in - East 9.2 mph - N/A   Unknown
9:52 PM 42.1 °F 37.1 °F 19.9 °F 41% 30.32 in - East 8.1 mph - N/A   Unknown
10:52 PM 39.9 °F 33.9 °F 23.0 °F 51% 30.32 in - East 9.2 mph - N/A   Unknown
11:52 PM 37.0 °F 31.6 °F 23.0 °F 57% 30.32 in - East 6.9 mph - N/A   Unknown